Location: ?????????
(48.6301°N, 37.5526°E)
Time: 11:21:52
(UTC+00:00)

Daily predictions for brighter satellites

Satellite Brightness Start Highest point End
(mag) Time Altitude Azimuth Time Altitude Azimuth Time Altitude Azimuth
MetOp-B 4.2 18:09:22 10° SSE 18:14:43 83° ENE 18:20:07 10° NNW
PSLV R/B 4.1 18:10:59 10° NNE 18:15:07 78° WNW 18:19:15 10° SSW
SL-24 R/B 4.2 18:11:13 10° SSE 18:15:26 81° ENE 18:20:00 10° NNW
Cosmos 1626 4.4 18:12:25 10° SW 18:15:33 27° WNW 18:18:44 10° NNW
Cosmos 292 Rocket 4.4 18:12:13 10° SW 18:16:55 61° WNW 18:21:38 10° NNE
Meteor 2-12 Rocket 4.5 18:11:42 10° N 18:17:48 77° E 18:23:53 10° SSE
SL-16 R/B 4.4 18:13:37 10° WSW 18:18:39 31° NW 18:23:43 10° NNE
SL-8 R/B 3.7 18:14:56 10° WSW 18:19:43 73° SSE 18:24:33 10° E
Cosmos 1709 Rocket 4.1 18:18:04 10° N 18:24:14 67° ENE 18:30:26 10° SSE
SL-14 R/B 4.1 18:22:46 10° SSW 18:26:33 53° WNW 18:30:25 10° N
Tiangong 2.6 18:26:35 10° SW 18:28:59 20° S 18:31:24 10° ESE
Meteor 2-5 Rocket 3.9 18:25:12 10° S 18:30:32 52° E 18:35:55 10° NNE
Ariane Rocket 3.5 18:26:44 10° S 18:31:46 62° WSW 18:36:51 10° NNW
Cosmos 1300 3.4 18:28:18 10° NNW 18:32:01 52° W 18:35:42 10° S
Terra 2.5 18:28:36 10° SE 18:33:03 42° ENE 18:37:33 10° N
Cosmos 1271 Rocket 3.8 18:29:47 10° N 18:33:24 32° ENE 18:36:55 10° SE
ARIANE 5 R/B 3.7 18:31:45 10° SE 18:35:46 33° ENE 18:39:46 10° N
USA 267 3.6 18:32:27 10° ENE 18:38:39 43° SE 18:44:49 10° SSW
Cosmos 1943 3.8 18:35:27 10° SW 18:41:04 62° WNW 18:46:42 10° NNE
FALCON 9 DEB 2.9 18:38:18 10° SW 18:41:33 73° SSE 18:44:49 10° ENE
Cosmos 1603 4.3 18:40:24 10° SW 18:46:04 64° WNW 18:51:48 10° NNE
Cosmos 1455 Rocket 3.2 18:48:14 10° NNW 18:52:36 72° W 18:56:54 10° S
S3M 4.5 18:46:32 10° SSW 18:52:40 63° WNW 18:58:47 10° N
NOSS 2-1 (D) 4.4 18:48:47 10° NW 18:53:00 54° NE 18:58:44 10° ESE
USA 245 4.2 18:51:33 10° S 18:56:34 57° WSW 19:00:39 10° NNW
CZ-4B R/B 3.7 18:58:09 10° NNW 19:00:28 22° WNW 19:02:46 10° WSW
Cosmos 1025 Rocket 3.0 18:57:10 10° S 19:01:26 85° W 19:05:45 10° N
Cosmos 1371 Rocket 4.0 18:57:10 10° SSW 19:02:22 75° ESE 19:07:40 10° NNE
Spot 2 Rocket 3.6 18:57:48 10° S 19:02:52 76° WSW 19:08:00 10° NNW
Cosmos 1607 4.0 18:59:08 10° SSW 19:05:14 59° ESE 19:11:19 10° NE
ATLAS 2AS CENTAUR R/B 2.8 19:00:42 10° NW 19:07:56 81° NE 19:13:48 14° SE
Helios 1A Rocket 3.4 19:09:37 12° S 19:13:20 56° WSW 19:17:23 10° NNW
Cosmos 1980 Rocket 4.2 19:09:28 10° N 19:13:35 20° NE 19:17:41 10° E
USA 234 3.4 19:07:18 10° ESE 19:13:52 77° NNE 19:20:26 10° NW
Cosmos 1697 Rocket 4.0 19:13:07 10° NNW 19:18:09 32° NE 19:23:09 10° ESE
Cosmos 1455 2.2 19:14:39 10° NNW 19:18:27 79° W 19:21:23 16° S
Cosmos 1703 4.0 19:16:34 19° SSE 19:18:49 35° E 19:22:21 10° NNE
Cosmos 1536 Rocket 3.8 19:16:16 16° SSE 19:19:29 52° E 19:23:43 10° NNE
Meteor 1-24 Rocket 3.8 19:15:30 10° SSW 19:20:47 72° WNW 19:26:12 10° N
Cosmos 1624 Rocket 4.1 19:18:35 10° SSW 19:23:50 81° WNW 19:29:05 10° NNE
SPOT 5 3.5 19:21:46 11° S 19:25:58 44° W 19:30:11 10° NNW
Cosmos 1975 Rocket 4.3 19:21:47 10° SW 19:26:01 41° WNW 19:30:15 10° N
Lacrosse 4 Rocket 4.3 19:22:59 10° W 19:26:06 20° NW 19:29:11 10° N
Cosmos 2184 Rocket 4.0 19:20:08 10° N 19:26:18 72° ENE 19:31:08 17° SSE
CZ-2C R/B 4.0 19:31:21 10° N 19:35:59 67° WNW 19:40:28 10° SSW
Cosmos 2228 3.2 19:32:47 10° N 19:36:59 57° ENE 19:39:29 23° SSE
Cosmos 1656 3.6 19:36:03 10° NNW 19:41:32 80° ENE 19:45:20 21° SSE
RESURS DK-1 3.2 19:38:08 10° NNW 19:42:06 41° NE 19:44:49 18° ESE
Cosmos 2056 Rocket 4.2 19:38:33 10° SW 19:43:50 58° WNW 19:49:13 10° NNE
Lacrosse 5 rocket 1.7 19:43:07 10° WNW 19:46:50 45° SW 19:48:45 25° SSE
Cosmos 1741 Rocket 4.2 19:42:28 10° NNW 19:47:48 70° ENE 19:51:17 22° SE
Cosmos 2344 4.5 19:39:25 10° NW 19:47:55 65° NE 19:59:38 10° ESE
ERS-1 Rocket 4.2 19:44:23 11° SSW 19:48:50 35° W 19:53:28 10° NNW
Cosmos 1833 Rocket 3.4 19:46:00 21° SSE 19:48:56 35° ESE 19:53:59 10° NE
NOSS 2-1 (E) 4.1 19:47:03 10° NW 19:51:37 71° SW 19:55:48 21° SSE
Cosmos 1726 Rocket 4.2 19:49:15 10° N 19:53:24 43° ENE 19:55:39 23° SE
Lacrosse 5 1.9 19:48:53 10° WNW 19:53:59 69° SW 19:57:08 23° SE
ALOS 2 4.1 19:52:43 15° ESE 19:55:25 26° ENE 19:59:05 10° N
Cosmos 2084 3.4 19:58:12 10° SW 20:02:01 69° NW 20:05:55 10° NE
SL-8 R/B 3.6 19:57:25 10° W 20:02:15 88° S 20:07:06 10° E
Cosmos 2082 Rocket 3.6 20:03:18 18° SE 20:05:12 21° E 20:09:20 10° NE
Tiangong 3.1 20:02:49 10° WSW 20:03:51 16° SW 20:03:51 16° SW
Terra 3.4 20:07:13 11° SSW 20:10:58 27° W 20:15:00 10° NW
ARIANE 5 R/B 4.0 20:09:06 15° SSW 20:12:12 31° W 20:16:10 10° NNW
FALCON 9 DEB 4.4 20:14:53 10° W 20:17:59 40° N 20:21:07 10° ENE
Cosmos 2058 Rocket 3.6 20:14:46 10° N 20:19:02 47° ENE 20:21:05 27° SE
Cosmos 1850 Rocket 4.2 20:14:44 10° NNW 20:19:54 64° WSW 20:22:43 26° S
USA 267 3.5 20:15:25 10° NE 20:21:57 75° NNW 20:28:28 10° WSW
Cosmos 1892 Rocket 3.6 20:25:12 31° SSE 20:27:09 64° E 20:31:31 10° NNE
GP-B 3.0 20:23:04 10° N 20:27:32 84° E 20:29:38 31° S
USA 276 1.8 20:27:49 62° SSE 20:27:49 62° SSE 20:30:37 10° ENE
ADEOS Rocket 3.7 20:28:53 22° SE 20:33:40 65° ENE 20:41:11 10° N
COSMOS 2406 3.6 20:31:18 27° SSE 20:34:03 47° ESE 20:39:34 10° NE
Spot 4 3.8 20:32:50 30° SSE 20:35:12 87° W 20:40:01 10° NNW
Cosmos 962 Rocket 4.5 20:30:32 10° N 20:36:47 86° W 20:40:29 26° S
Nadezhda 1 Rocket 4.3 20:34:21 17° SSW 20:39:08 59° WNW 20:45:10 10° N
Cosmos 1408 2.5 20:39:06 45° SSE 20:39:53 61° E 20:43:18 10° NNE
ASTEX 1 3.8 20:36:58 10° N 20:41:54 59° W 20:45:01 22° SSW
Cosmos 1331 Rocket 4.0 20:39:00 23° SSW 20:42:27 88° WNW 20:47:48 10° NNE
Cosmos 2369 3.9 20:36:43 10° NNW 20:42:29 70° ENE 20:46:00 24° SE
Meteor 1-11 4.2 20:40:03 28° S 20:43:06 72° E 20:48:42 10° NNE
Cosmos 1626 Rocket 4.5 20:44:15 27° SE 20:45:40 34° E 20:49:35 10° NNE
Cosmos 1452 Rocket 4.2 20:40:48 11° SW 20:45:43 52° WNW 20:50:52 10° NNE
SL-16 R/B 4.1 20:41:57 10° N 20:46:38 25° NE 20:51:16 10° E
Okean 1-7 Rocket 4.2 20:46:16 30° SE 20:47:49 43° E 20:52:02 10° NNE
Cosmos 192 4.4 20:48:15 32° S 20:50:22 61° ESE 20:55:13 10° NNE
Cosmos 1825 2.9 20:51:38 34° SE 20:52:29 39° E 20:56:01 10° NNE
H-2A R/B 3.4 20:51:02 10° NNE 20:55:15 77° ESE 20:56:50 37° S
USA 234 3.8 20:54:06 26° S 20:57:11 42° SW 21:03:21 10° WNW
ATLAS 2AS CENTAUR R/B 4.0 20:52:36 10° WNW 20:58:04 25° WSW 21:01:13 18° SSW
Cosmos 1980 Rocket 2.2 20:52:47 10° NNW 20:58:32 81° ENE 21:01:46 27° SSE
Cosmos 1110 Rocket 4.5 20:57:42 17° SW 21:01:41 58° WNW 21:06:56 10° NNE
Cosmos 1697 Rocket 3.0 20:56:55 10° NW 21:02:23 52° WSW 21:04:56 30° S
Cosmos 1302 Rocket 3.9 21:03:41 31° S 21:06:13 76° ESE 21:11:26 10° NNE
ERS-2 2.3 21:06:21 10° NNE 21:09:53 54° ESE 21:10:35 45° SE
In-Cosmos 22 Rocket 4.1 21:11:08 30° S 21:14:03 85° ESE 21:19:37 10° NNE
Cosmos 1892 2.9 21:14:07 37° SW 21:15:21 59° WNW 21:19:05 10° N
SL-8 Rocket 4.2 21:10:01 10° NNW 21:16:11 63° W 21:19:35 27° SSW
SJ 16-02 3.4 21:13:20 10° N 21:16:54 23° NE 21:20:25 10° ESE
BREEZE-M DEB (TANK) 3.6 21:07:22 10° WSW 21:18:00 62° SSE 21:21:23 10° E
RESURS DK-1 3.8 21:16:34 10° NW 21:19:51 23° WSW 21:20:38 22° SW
Cosmos 2218 Rocket 4.2 21:15:28 10° NNW 21:21:50 68° W 21:25:20 28° S
Cosmos 2322 Rocket 3.6 21:23:04 10° NNW 21:28:13 34° NE 21:33:20 10° ESE
Cosmos 2278 3.7 21:22:39 10° NNW 21:28:25 83° ENE 21:31:47 26° SSE
Aureole 1 Rocket 4.5 21:22:07 10° NNW 21:28:41 72° ENE 21:34:34 20° SSE
Cosmos 2366 rocket 4.3 21:23:52 10° NNW 21:30:03 59° W 21:33:28 27° SSW
Cosmos 1758 Rocket 3.9 21:29:59 35° SSE 21:31:27 51° E 21:35:41 10° NNE
ALOS 2 3.5 21:30:06 29° SW 21:31:36 38° W 21:35:43 10° NNW
Cosmos 1833 Rocket 3.6 21:27:38 11° SW 21:32:45 44° NW 21:38:09 10° NNE
Cosmos 2058 4.2 21:34:11 23° SE 21:35:39 30° E 21:39:19 10° NNE
Lacrosse 5 3.7 21:33:22 10° W 21:36:09 15° WSW 21:36:18 15° WSW
Cosmos 1812 Rocket 3.5 21:37:27 10° N 21:41:58 86° W 21:43:39 38° S
Cosmos 2084 Rocket 3.3 21:38:20 10° NW 21:42:11 59° SW 21:43:08 44° S
SL-8 R/B 3.8 21:39:58 10° W 21:44:38 50° SSW 21:46:45 29° SE
Cosmos 968 Rocket 4.2 21:41:31 10° NW 21:46:17 38° WSW 21:48:10 28° SW
Geosat FO 4.4 21:46:11 53° S 21:46:51 72° WSW 21:50:25 10° NNW
Cosmos 2082 Rocket 2.4 21:45:07 24° SW 21:48:42 72° WNW 21:54:26 10° NNE
ATLAS 5 CENTAUR R/B 2.1 21:49:33 31° SE 21:49:57 32° ESE 21:53:37 10° ENE
Cosmos 2221 4.3 21:46:24 10° NNE 21:50:03 26° ENE 21:53:03 13° ESE
Resurs 1-4 Rocket 4.2 21:48:07 10° NE 21:51:24 16° E 21:54:41 10° SE
SL-19 R/B 4.4 21:51:26 37° SE 21:52:36 60° ENE 21:56:25 10° N
FALCON 9 DEB 4.3 21:51:33 10° WNW 21:54:42 43° NNE 21:57:51 10° E
Cosmos 1602 Rocket 3.6 21:55:07 36° SSW 21:56:46 67° WNW 22:01:05 10° N
Cosmos 1633 2.6 21:57:32 47° SW 21:58:21 65° W 22:01:50 10° N
USA 276 2.3 22:00:08 10° W 22:03:02 63° N 22:05:56 10° E
Cosmos 1486 Rocket 4.2 21:59:16 10° NNW 22:04:22 58° WSW 22:06:37 32° S
USA 267 4.4 21:58:23 10° ENE 22:04:32 45° N 22:10:40 10° WNW
Cosmos 1934 Rocket 4.0 22:03:29 10° N 22:09:34 75° E 22:13:26 24° SSE
Cosmos 2360 Rocket 3.3 22:04:36 10° NNW 22:10:02 43° NE 22:15:26 10° SE
Cosmos 1238 4.2 22:12:41 54° SW 22:13:07 65° W 22:16:09 10° N
COSMOS 2406 4.5 22:13:20 10° WSW 22:18:31 36° NW 22:23:49 10° NNE
Cosmos 1953 Rocket 3.8 22:18:01 31° SSE 22:19:59 62° E 22:24:24 10° NNE
Cosmos 1867 4.1 22:17:29 10° NW 22:22:36 41° WSW 22:24:38 29° SSW
BREEZE-M DEB (TANK) 3.0 22:24:51 40° S 22:25:30 47° SE 22:31:46 10° ENE
Cosmos 1354 Rocket 4.0 22:20:37 10° NNW 22:25:56 76° WSW 22:28:57 26° S
Cosmos 1825 4.3 22:26:15 13° W 22:28:01 17° WNW 22:30:37 10° NNW
Cosmos-2242 4.0 22:27:22 10° NNW 22:31:11 33° W 22:32:34 26° SW
SL-16 R/B 2.2 22:25:38 10° NNW 22:31:19 73° WSW 22:34:59 23° SSE
Cosmos 1606 3.4 22:29:48 10° NNW 22:33:25 40° W 22:34:28 32° SW
Cosmos 1825 Rocket 3.7 22:33:22 32° SSW 22:35:14 61° WNW 22:39:32 10° N
Cosmos 1340 Rocket 2.7 22:34:26 36° S 22:35:57 78° E 22:39:54 10° NNE
ADEOS II 3.9 22:34:41 10° NE 22:38:43 22° E 22:42:44 10° SE
Cosmos 1503 Rocket 4.4 22:35:32 10° NNW 22:40:38 48° WSW 22:43:06 27° SSW
Cosmos 1980 Rocket 3.8 22:38:05 10° WNW 22:41:49 18° W 22:43:31 16° WSW
MOZ.5/SAFIR/RUBIN 5/SL-8 3.8 22:40:25 25° SSE 22:43:12 85° WSW 22:48:00 10° NNW
Cosmos 1605 Rocket 4.1 22:36:56 10° N 22:43:23 84° E 22:48:09 19° S
Meteor 2-3 Rocket 4.4 22:42:34 19° SSE 22:46:24 48° E 22:51:45 10° NNE
Cosmos 1842 Rocket 3.7 22:44:39 10° N 22:49:09 74° E 22:52:02 22° SSE
Cosmos 2219 Rocket 3.5 22:47:04 10° NNW 22:52:26 41° NE 22:57:48 10° ESE
Cosmos 1076 Rocket 4.2 22:51:45 22° SSE 22:54:20 50° E 22:58:34 10° NNE
SJ 16-02 1.7 22:51:25 10° NNW 22:55:42 47° WSW 22:57:37 28° SSW
Cosmos 1782 3.5 22:54:53 10° N 22:58:48 50° ENE 23:01:51 15° SSE
Cosmos 972 Rocket 3.9 22:54:40 10° NNW 22:59:40 78° WSW 23:03:43 18° SSE
Cosmos 1777 Rocket 4.1 22:55:04 10° NNW 23:00:17 60° WSW 23:03:39 22° S
COSMOS 2487 4.3 23:02:34 14° SE 23:03:59 19° ESE 23:06:13 10° NE
Cosmos 2333 Rocket 2.6 22:59:16 10° NNW 23:05:01 65° ENE 23:10:44 10° SE
Cosmos 2058 4.3 23:10:19 18° WSW 23:12:28 28° WNW 23:16:08 10° N
Cosmos 2322 Rocket 2.5 23:07:01 10° NW 23:12:29 49° WSW 23:16:19 19° S
CZ-2D R/B 2.2 23:08:17 10° NNE 23:13:32 71° ESE 23:17:12 20° S
SL-16 R/B 2.6 23:09:36 10° SSE 23:15:53 85° ENE 23:22:12 10° NNW
BREEZE-M DEB (TANK) 3.6 23:08:48 10° WNW 23:16:52 46° SW 23:19:53 10° SE
IDEFIX/ARIANE 42P 3.5 23:15:41 10° NNE 23:20:37 41° E 23:25:11 12° SSE
Cosmos 1933 3.3 23:19:49 10° NNW 23:23:49 68° W 23:26:20 21° S
Thor Agena Rocket 3.9 23:20:09 10° N 23:25:18 58° WNW 23:28:53 19° SW
Cosmos 2221 3.4 23:23:43 10° NNW 23:27:39 34° W 23:29:51 21° SW
FALCON 9 DEB 2.9 23:27:51 10° WNW 23:31:05 60° SSW 23:34:19 10° SE
Resurs 1-4 Rocket 2.1 23:26:30 10° NNE 23:31:51 81° WNW 23:35:51 18° SSW
Cosmos 2082 Rocket 4.4 23:29:58 10° W 23:33:50 18° NW 23:37:43 10° N
Helios 1A 3.8 23:29:57 10° SE 23:34:02 51° ENE 23:38:07 10° N
ATLAS 5 CENTAUR R/B 2.7 23:30:58 11° WSW 23:34:22 34° NW 23:38:25 10° NNE
SL-4 R/B 3.1 23:33:32 20° S 23:35:08 27° SE 23:38:28 10° E
Cosmos 2333 4.2 23:32:23 10° NNW 23:38:09 75° WSW 23:43:55 10° SSE
USA 276 1.7 23:35:28 10° WNW 23:38:23 79° SSW 23:41:16 10° ESE
Cosmos 540 Rocket 4.5 23:37:57 11° S 23:42:30 40° ESE 23:47:17 10° NE
Cosmos 1833 4.2 23:38:35 18° SSW 23:42:52 82° WNW 23:48:30 10° NNE
SAR-Lupe-2 4.0 23:39:31 10° NNE 23:43:04 56° ESE 23:45:51 15° S
Meteor 1-26 Rocket 4.4 23:37:39 10° NNW 23:43:18 63° W 23:48:41 12° S
MOS 1 Rocket 3.6 23:39:19 15° S 23:43:20 60° W 23:48:30 10° NNW
SL-27 R/B 2.3 23:42:47 21° SSW 23:44:53 77° ESE 23:48:12 10° NNE
USA 267 4.4 23:40:40 10° E 23:46:51 47° NNE 23:53:03 10° WNW
Cosmos 2151 3.2 23:46:42 18° SSW 23:49:42 58° WNW 23:53:58 10° N
COSMOS 2428 2.9 23:47:17 10° NNW 23:53:02 77° ENE 23:58:44 10° SSE
Cosmos 44 3.3 23:49:38 17° SSW 23:53:11 67° SE 23:57:39 10° NE
Cosmos 2360 Rocket 2.8 23:48:48 10° NW 23:53:58 37° WSW 23:58:43 12° S
